Time,TemperatureF,DewpointF,PressureIn,WindDirection,WindDirectionDegrees,WindSpeedMPH,WindSpeedGustMPH,Humidity,HourlyPrecipIn,Conditions,Clouds,dailyrainin,SolarRadiationWatts/m^2,SoftwareType,DateUTC
2013-09-14 00:01:00,56.3,49.2,29.93,North,355,2.0,4.0,77,0.00,,CLR,0.00,0.00,VWS V14.01,2013-09-14 04:01:00,
2013-09-14 00:02:00,56.2,48.0,29.93,North,355,5.0,8.0,74,0.00,,CLR,0.00,0.00,VWS V14.01,2013-09-14 04:02:00,
2013-09-14 00:03:00,56.2,48.0,29.93,North,355,5.0,8.0,74,0.00,,CLR,0.00,0.00,VWS V14.01,2013-09-14 04:03:00,
2013-09-14 00:06:00,56.2,48.0,29.93,NNE,24,8.0,8.0,74,0.00,,CLR,0.00,0.00,VWS V14.01,2013-09-14 04:06:00,
2013-09-14 00:11:00,56.1,47.6,29.93,NW,318,5.0,7.0,73,0.00,,CLR,0.00,0.00,VWS V14.01,2013-09-14 04:11:00,
2013-09-14 00:16:00,56.1,47.6,29.94,North,355,5.0,8.0,73,0.00,,CLR,0.00,0.00,VWS V14.01,2013-09-14 04:16:00,
2013-09-14 00:22:00,56.1,47.2,29.93,NW,326,9.0,9.0,72,0.00,,CLR,0.00,0.00,VWS V14.01,2013-09-14 04:22:00,
2013-09-14 00:27:00,56.1,47.2,29.93,NW,318,5.0,11.0,72,0.00,,CLR,0.00,0.00,VWS V14.01,2013-09-14 04:27:00,
2013-09-14 00:32:00,56.0,47.1,29.94,NNW,347,5.0,10.0,72,0.00,,CLR,0.00,0.00,VWS V14.01,2013-09-14 04:32:00,
2013-09-14 00:37:00,56.0,46.7,29.94,NNW,338,5.0,8.0,71,0.00,,CLR,0.00,0.00,VWS V14.01,2013-09-14 04:37:00,
2013-09-14 00:42:00,55.9,46.7,29.94,NNW,344,2.0,5.0,71,0.00,,CLR,0.00,0.00,VWS V14.01,2013-09-14 04:42:00,
2013-09-14 00:47:00,55.8,46.9,29.94,NNW,327,3.0,7.0,72,0.00,,CLR,0.00,0.00,VWS V14.01,2013-09-14 04:47:00,
2013-09-14 00:52:00,55.6,46.7,29.95,North,5,3.0,7.0,72,0.00,,CLR,0.00,0.00,VWS V14.01,2013-09-14 04:52:00,
2013-09-14 00:58:00,55.5,46.6,29.95,NW,322,3.0,7.0,72,0.00,,CLR,0.00,0.00,VWS V14.01,2013-09-14 04:58:00,
2013-09-14 01:03:00,55.3,46.4,29.95,North,349,3.0,6.0,72,0.00,,CLR,0.00,0.00,VWS V14.01,2013-09-14 05:03:00,
2013-09-14 01:08:00,55.2,46.7,29.95,North,355,0.0,5.0,73,0.00,,CLR,0.00,0.00,VWS V14.01,2013-09-14 05:08:00,
2013-09-14 01:13:00,55.0,46.5,29.95,North,355,0.0,1.0,73,0.00,,CLR,0.00,0.00,VWS V14.01,2013-09-14 05:13:00,
2013-09-14 01:18:00,54.9,46.8,29.95,NNW,344,0.0,2.0,74,0.00,,CLR,0.00,0.00,VWS V14.01,2013-09-14 05:18:00,
2013-09-14 01:23:00,54.7,46.6,29.95,NNW,338,0.0,4.0,74,0.00,,CLR,0.00,0.00,VWS V14.01,2013-09-14 05:23:00,
2013-09-14 01:28:00,54.5,46.8,29.95,NNW,338,0.0,0.0,75,0.00,,CLR,0.00,0.00,VWS V14.01,2013-09-14 05:28:00,
2013-09-14 01:33:00,54.4,46.7,29.95,NNW,338,0.0,0.0,75,0.00,,CLR,0.00,0.00,VWS V14.01,2013-09-14 05:33:00,
2013-09-14 01:38:00,54.2,47.2,29.95,NNW,338,0.0,1.0,77,0.00,,CLR,0.00,0.00,VWS V14.01,2013-09-14 05:38:00,
2013-09-14 01:43:00,53.8,47.5,29.95,NW,326,0.0,3.0,79,0.00,,CLR,0.00,0.00,VWS V14.01,2013-09-14 05:43:00,
2013-09-14 01:48:00,53.6,47.3,29.95,NW,326,0.0,0.0,79,0.00,,CLR,0.00,0.00,VWS V14.01,2013-09-14 05:48:00,
2013-09-14 01:53:00,53.4,47.4,29.95,NW,326,0.0,2.0,80,0.00,,CLR,0.00,0.00,VWS V14.01,2013-09-14 05:53:00,
2013-09-14 01:59:00,53.0,47.3,29.95,NW,313,0.0,2.0,81,0.00,,CLR,0.00,0.00,VWS V14.01,2013-09-14 05:59:00,
2013-09-14 02:04:00,52.8,47.1,29.95,NW,320,0.0,0.0,81,0.00,,CLR,0.00,0.00,VWS V14.01,2013-09-14 06:04:00,
2013-09-14 02:09:00,52.6,47.3,29.95,NW,320,0.0,1.0,82,0.00,,CLR,0.00,0.00,VWS V14.01,2013-09-14 06:09:00,
2013-09-14 02:14:00,52.4,47.1,29.95,NW,322,0.0,0.0,82,0.00,,CLR,0.00,0.00,VWS V14.01,2013-09-14 06:14:00,
2013-09-14 02:19:00,52.2,46.9,29.95,NW,325,0.0,0.0,82,0.00,,CLR,0.00,0.00,VWS V14.01,2013-09-14 06:19:00,
2013-09-14 02:24:00,52.1,47.1,29.95,WNW,296,1.0,4.0,83,0.00,,CLR,0.00,0.00,VWS V14.01,2013-09-14 06:24:00,
2013-09-14 02:29:00,51.9,46.9,29.95,NW,311,0.0,1.0,83,0.00,,CLR,0.00,0.00,VWS V14.01,2013-09-14 06:29:00,
2013-09-14 02:35:00,51.8,46.8,29.95,NW,313,1.0,2.0,83,0.00,,CLR,0.00,0.00,VWS V14.01,2013-09-14 06:35:00,
2013-09-14 02:40:00,51.8,46.8,29.95,NW,319,0.0,2.0,83,0.00,,CLR,0.00,0.00,VWS V14.01,2013-09-14 06:40:00,
2013-09-14 02:45:00,51.7,46.7,29.95,NNW,336,0.0,4.0,83,0.00,,CLR,0.00,0.00,VWS V14.01,2013-09-14 06:45:00,
2013-09-14 02:50:00,51.6,46.6,29.95,North,350,0.0,2.0,83,0.00,,CLR,0.00,0.00,VWS V14.01,2013-09-14 06:50:00,
2013-09-14 02:55:00,51.5,46.5,29.95,NW,325,0.0,1.0,83,0.00,,CLR,0.00,0.00,VWS V14.01,2013-09-14 06:55:00,
2013-09-14 03:00:00,51.5,46.8,29.95,NW,325,0.0,0.0,84,0.00,,CLR,0.00,0.00,VWS V14.01,2013-09-14 07:00:00,
2013-09-14 03:05:00,51.4,46.4,29.95,NW,325,0.0,1.0,83,0.00,,CLR,0.00,0.00,VWS V14.01,2013-09-14 07:05:00,
2013-09-14 03:10:00,51.2,46.5,29.95,NW,315,2.0,6.0,84,0.00,,CLR,0.00,0.00,VWS V14.01,2013-09-14 07:10:00,
2013-09-14 03:15:00,51.1,46.4,29.95,NNW,330,4.0,4.0,84,0.00,,CLR,0.00,0.00,VWS V14.01,2013-09-14 07:15:00,
2013-09-14 03:20:00,51.2,46.5,29.95,NW,325,5.0,5.0,84,0.00,,CLR,0.00,0.00,VWS V14.01,2013-09-14 07:20:00,
2013-09-14 03:26:00,51.2,46.5,29.95,NNW,333,2.0,5.0,84,0.00,,CLR,0.00,0.00,VWS V14.01,2013-09-14 07:26:00,
2013-09-14 03:31:00,51.2,46.8,29.95,NNW,340,0.0,4.0,85,0.00,,CLR,0.00,0.00,VWS V14.01,2013-09-14 07:31:00,
2013-09-14 03:36:00,51.2,46.8,29.96,NNW,340,1.0,3.0,85,0.00,,CLR,0.00,0.00,VWS V14.01,2013-09-14 07:36:00,
2013-09-14 03:41:00,51.1,46.8,29.95,NNW,340,0.0,1.0,85,0.00,,CLR,0.00,0.00,VWS V14.01,2013-09-14 07:41:00,
2013-09-14 03:46:00,51.0,46.7,29.95,NNW,337,0.0,2.0,85,0.00,,CLR,0.00,0.00,VWS V14.01,2013-09-14 07:46:00,
2013-09-14 03:51:00,50.9,46.6,29.96,NW,313,0.0,6.0,85,0.00,,CLR,0.00,0.00,VWS V14.01,2013-09-14 07:51:00,
2013-09-14 03:56:00,50.8,46.8,29.95,NW,310,3.0,7.0,86,0.00,,CLR,0.00,0.00,VWS V14.01,2013-09-14 07:56:00,
2013-09-14 04:01:00,50.7,46.7,29.96,NW,323,2.0,6.0,86,0.00,,CLR,0.00,0.00,VWS V14.01,2013-09-14 08:01:00,
2013-09-14 04:06:00,50.6,46.6,29.96,NW,311,0.0,4.0,86,0.00,,CLR,0.00,0.00,VWS V14.01,2013-09-14 08:06:00,
2013-09-14 04:11:00,50.5,46.5,29.96,NNW,328,8.0,8.0,86,0.00,,CLR,0.00,0.00,VWS V14.01,2013-09-14 08:11:00,
2013-09-14 04:17:00,50.5,46.8,29.96,NW,317,4.0,7.0,87,0.00,,CLR,0.00,0.00,VWS V14.01,2013-09-14 08:17:00,
2013-09-14 04:22:00,50.5,46.5,29.96,North,350,4.0,6.0,86,0.00,,CLR,0.00,0.00,VWS V14.01,2013-09-14 08:22:00,
2013-09-14 04:27:00,50.4,46.4,29.96,NW,309,2.0,7.0,86,0.00,,CLR,0.00,0.00,VWS V14.01,2013-09-14 08:27:00,
2013-09-14 04:32:00,50.3,46.3,29.97,North,355,3.0,6.0,86,0.00,,CLR,0.00,0.00,VWS V14.01,2013-09-14 08:32:00,
2013-09-14 04:37:00,50.3,46.3,29.96,North,350,1.0,7.0,86,0.00,,CLR,0.00,0.00,VWS V14.01,2013-09-14 08:37:00,
2013-09-14 04:42:00,50.2,46.2,29.97,NNW,330,1.0,4.0,86,0.00,,CLR,0.00,0.00,VWS V14.01,2013-09-14 08:42:00,
2013-09-14 04:47:00,50.1,46.1,29.96,NNW,335,0.0,5.0,86,0.00,,CLR,0.00,0.00,VWS V14.01,2013-09-14 08:47:00,
2013-09-14 04:52:00,50.1,46.1,29.96,North,355,4.0,4.0,86,0.00,,CLR,0.00,0.00,VWS V14.01,2013-09-14 08:52:00,
2013-09-14 04:57:00,50.0,46.0,29.97,NNW,333,1.0,1.0,86,0.00,,CLR,0.00,0.00,VWS V14.01,2013-09-14 08:57:00,
2013-09-14 05:02:00,49.9,46.2,29.97,NNW,328,3.0,5.0,87,0.00,,CLR,0.00,0.00,VWS V14.01,2013-09-14 09:02:00,
2013-09-14 05:08:00,49.7,46.0,29.97,NW,319,1.0,5.0,87,0.00,,CLR,0.00,0.00,VWS V14.01,2013-09-14 09:08:00,
2013-09-14 05:13:00,49.7,46.0,29.97,NNW,331,0.0,5.0,87,0.00,,CLR,0.00,0.00,VWS V14.01,2013-09-14 09:13:00,
2013-09-14 05:18:00,49.6,45.9,29.97,NW,319,0.0,4.0,87,0.00,,CLR,0.00,0.00,VWS V14.01,2013-09-14 09:18:00,
2013-09-14 05:23:00,49.4,45.7,29.98,NW,325,0.0,5.0,87,0.00,,CLR,0.00,0.00,VWS V14.01,2013-09-14 09:23:00,
2013-09-14 05:28:00,49.3,45.9,29.97,West,280,0.0,5.0,88,0.00,,CLR,0.00,0.00,VWS V14.01,2013-09-14 09:28:00,
2013-09-14 05:33:00,49.2,45.5,29.98,NNW,329,0.0,6.0,87,0.00,,CLR,0.00,0.00,VWS V14.01,2013-09-14 09:33:00,
2013-09-14 05:38:00,49.1,45.7,29.98,NNW,329,0.0,3.0,88,0.00,,CLR,0.00,0.00,VWS V14.01,2013-09-14 09:38:00,
2013-09-14 05:44:00,49.0,45.6,29.98,NNW,330,0.0,5.0,88,0.00,,CLR,0.00,0.00,VWS V14.01,2013-09-14 09:44:00,
2013-09-14 05:49:00,48.9,45.5,29.98,NW,314,5.0,5.0,88,0.00,,CLR,0.00,0.00,VWS V14.01,2013-09-14 09:49:00,
2013-09-14 05:54:00,48.9,45.5,29.98,NW,316,1.0,1.0,88,0.00,,CLR,0.00,0.00,VWS V14.01,2013-09-14 09:54:00,
2013-09-14 05:59:00,48.8,45.4,29.99,NW,322,4.0,4.0,88,0.00,,CLR,0.00,0.00,VWS V14.01,2013-09-14 09:59:00,
2013-09-14 06:04:00,48.8,45.4,29.99,NNW,329,4.0,6.0,88,0.00,,CLR,0.00,0.00,VWS V14.01,2013-09-14 10:04:00,
2013-09-14 06:09:00,48.8,45.4,29.99,North,355,4.0,6.0,88,0.00,,CLR,0.00,0.00,VWS V14.01,2013-09-14 10:09:00,
2013-09-14 06:14:00,48.8,45.4,29.99,NNW,327,4.0,6.0,88,0.00,,CLR,0.00,0.00,VWS V14.01,2013-09-14 10:14:00,
2013-09-14 06:20:00,48.8,45.4,29.99,NNW,331,0.0,4.0,88,0.00,,CLR,0.00,0.00,VWS V14.01,2013-09-14 10:20:00,
2013-09-14 06:25:00,48.7,45.3,29.99,WNW,294,5.0,5.0,88,0.00,,CLR,0.00,0.00,VWS V14.01,2013-09-14 10:25:00,
2013-09-14 06:30:00,48.7,45.3,30.00,WNW,300,5.0,6.0,88,0.00,,CLR,0.00,0.00,VWS V14.01,2013-09-14 10:30:00,
2013-09-14 06:35:00,48.6,45.2,30.00,NW,317,3.0,6.0,88,0.00,,CLR,0.00,0.00,VWS V14.01,2013-09-14 10:35:00,
2013-09-14 06:40:00,48.6,45.2,30.00,NNW,339,5.0,7.0,88,0.00,,CLR,0.00,0.00,VWS V14.01,2013-09-14 10:40:00,
2013-09-14 06:45:00,48.5,45.1,30.00,NNW,331,0.0,4.0,88,0.00,,CLR,0.00,0.00,VWS V14.01,2013-09-14 10:45:00,
2013-09-14 06:50:00,48.5,45.1,30.00,NNW,327,2.0,3.0,88,0.00,,CLR,0.00,0.00,VWS V14.01,2013-09-14 10:50:00,
2013-09-14 06:55:00,48.4,45.0,30.01,NW,316,2.0,2.0,88,0.00,,CLR,0.00,5.00,VWS V14.01,2013-09-14 10:55:00,
2013-09-14 07:01:00,48.4,45.0,30.01,NNW,330,0.0,2.0,88,0.00,,CLR,0.00,7.00,VWS V14.01,2013-09-14 11:01:00,
2013-09-14 07:06:00,48.3,44.9,30.01,NW,310,0.0,2.0,88,0.00,,CLR,0.00,9.00,VWS V14.01,2013-09-14 11:06:00,
2013-09-14 07:11:00,48.3,44.9,30.02,NW,310,0.0,1.0,88,0.00,,CLR,0.00,11.00,VWS V14.01,2013-09-14 11:11:00,
2013-09-14 07:16:00,48.2,46.0,30.02,NW,311,0.0,1.0,92,0.00,,CLR,0.00,12.00,VWS V14.01,2013-09-14 11:16:00,
2013-09-14 07:21:00,48.2,44.8,30.02,NW,311,0.0,3.0,88,0.00,,CLR,0.00,14.00,VWS V14.01,2013-09-14 11:21:00,
2013-09-14 07:26:00,48.1,44.7,30.03,NW,311,0.0,0.0,88,0.00,,CLR,0.00,16.00,VWS V14.01,2013-09-14 11:26:00,
2013-09-14 07:31:00,48.1,44.7,30.03,NW,311,0.0,0.0,88,0.00,,CLR,0.00,18.00,VWS V14.01,2013-09-14 11:31:00,
2013-09-14 07:36:00,48.1,45.0,30.03,NW,311,0.0,1.0,89,0.00,,CLR,0.00,19.00,VWS V14.01,2013-09-14 11:36:00,
2013-09-14 07:41:00,48.1,45.0,30.03,NW,311,0.0,0.0,89,0.00,,CLR,0.00,21.00,VWS V14.01,2013-09-14 11:41:00,
2013-09-14 07:46:00,48.1,45.0,30.04,NW,311,0.0,0.0,89,0.00,,CLR,0.00,21.00,VWS V14.01,2013-09-14 11:46:00,
2013-09-14 07:51:00,48.1,45.3,30.04,NW,311,0.0,0.0,90,0.00,,CLR,0.00,23.00,VWS V14.01,2013-09-14 11:51:00,
2013-09-14 07:56:00,48.0,45.2,30.04,NW,311,0.0,0.0,90,0.00,,CLR,0.00,23.00,VWS V14.01,2013-09-14 11:56:00,
2013-09-14 08:02:00,48.1,45.3,30.04,NW,311,0.0,0.0,90,0.00,,CLR,0.00,47.00,VWS V14.01,2013-09-14 12:02:00,
2013-09-14 08:07:00,48.1,45.3,30.04,NW,311,0.0,1.0,90,0.00,,CLR,0.00,91.00,VWS V14.01,2013-09-14 12:07:00,
2013-09-14 08:12:00,48.4,45.9,30.05,NW,311,0.0,0.0,91,0.00,,CLR,0.00,123.00,VWS V14.01,2013-09-14 12:12:00,
2013-09-14 08:17:00,48.7,46.2,30.05,NW,311,0.0,0.0,91,0.00,,CLR,0.00,111.00,VWS V14.01,2013-09-14 12:17:00,
2013-09-14 08:22:00,49.1,46.6,30.05,NW,311,0.0,0.0,91,0.00,,CLR,0.00,130.00,VWS V14.01,2013-09-14 12:22:00,
2013-09-14 08:27:00,49.6,47.1,30.05,NW,311,1.0,2.0,91,0.00,,CLR,0.00,134.00,VWS V14.01,2013-09-14 12:27:00,
2013-09-14 08:32:00,50.1,47.3,30.05,NW,311,0.0,1.0,90,0.00,,CLR,0.00,149.00,VWS V14.01,2013-09-14 12:32:00,
2013-09-14 08:37:00,50.6,47.5,30.05,NW,311,0.0,0.0,89,0.00,,CLR,0.00,181.00,VWS V14.01,2013-09-14 12:37:00,
2013-09-14 08:42:00,51.2,47.8,30.05,NW,311,0.0,2.0,88,0.00,,CLR,0.00,209.00,VWS V14.01,2013-09-14 12:42:00,
2013-09-14 08:47:00,51.7,47.7,30.05,NW,313,0.0,4.0,86,0.00,,CLR,0.00,239.00,VWS V14.01,2013-09-14 12:47:00,
2013-09-14 08:52:00,52.3,48.2,30.05,NW,313,0.0,1.0,86,0.00,,CLR,0.00,258.00,VWS V14.01,2013-09-14 12:52:00,
2013-09-14 08:57:00,52.9,48.2,30.05,NW,313,0.0,1.0,84,0.00,,CLR,0.00,278.00,VWS V14.01,2013-09-14 12:57:00,
2013-09-14 09:03:00,53.3,48.0,30.06,NW,313,0.0,1.0,82,0.00,,CLR,0.00,295.00,VWS V14.01,2013-09-14 13:03:00,
2013-09-14 09:08:00,53.8,48.1,30.06,NW,313,0.0,1.0,81,0.00,,CLR,0.00,315.00,VWS V14.01,2013-09-14 13:08:00,
2013-09-14 09:13:00,54.3,47.9,30.06,NW,313,0.0,3.0,79,0.00,,CLR,0.00,329.00,VWS V14.01,2013-09-14 13:13:00,
2013-09-14 09:18:00,54.6,48.2,30.06,NW,313,0.0,1.0,79,0.00,,CLR,0.00,338.00,VWS V14.01,2013-09-14 13:18:00,
2013-09-14 09:23:00,55.2,48.5,30.06,WNW,288,0.0,3.0,78,0.00,,CLR,0.00,348.00,VWS V14.01,2013-09-14 13:23:00,
2013-09-14 09:28:00,55.7,48.6,30.07,WNW,283,0.0,1.0,77,0.00,,CLR,0.00,359.00,VWS V14.01,2013-09-14 13:28:00,
2013-09-14 09:33:00,56.0,48.2,30.06,NW,313,0.0,7.0,75,0.00,,CLR,0.00,371.00,VWS V14.01,2013-09-14 13:33:00,
2013-09-14 09:38:00,56.3,48.1,30.06,NW,318,3.0,5.0,74,0.00,,CLR,0.00,385.00,VWS V14.01,2013-09-14 13:38:00,
2013-09-14 09:43:00,56.5,48.3,30.06,NNW,339,5.0,5.0,74,0.00,,CLR,0.00,401.00,VWS V14.01,2013-09-14 13:43:00,
2013-09-14 09:48:00,56.8,48.6,30.06,North,355,4.0,5.0,74,0.00,,CLR,0.00,417.00,VWS V14.01,2013-09-14 13:48:00,
2013-09-14 09:53:00,56.9,48.0,30.06,NNW,331,0.0,4.0,72,0.00,,CLR,0.00,432.00,VWS V14.01,2013-09-14 13:53:00,
2013-09-14 09:58:00,57.1,48.2,30.06,NW,315,2.0,6.0,72,0.00,,CLR,0.00,441.00,VWS V14.01,2013-09-14 13:58:00,
2013-09-14 10:04:00,57.5,47.8,30.06,NNW,333,2.0,7.0,70,0.00,,CLR,0.00,446.00,VWS V14.01,2013-09-14 14:04:00,
2013-09-14 10:09:00,57.7,48.4,30.06,NNW,346,0.0,8.0,71,0.00,,CLR,0.00,445.00,VWS V14.01,2013-09-14 14:09:00,
2013-09-14 10:14:00,58.3,48.2,30.06,NNW,333,4.0,9.0,69,0.00,,CLR,0.00,450.00,VWS V14.01,2013-09-14 14:14:00,
2013-09-14 10:19:00,58.4,47.5,30.06,NNW,327,0.0,10.0,67,0.00,,CLR,0.00,441.00,VWS V14.01,2013-09-14 14:19:00,
2013-09-14 10:24:00,58.6,48.1,30.06,NW,321,0.0,4.0,68,0.00,,CLR,0.00,448.00,VWS V14.01,2013-09-14 14:24:00,
2013-09-14 10:29:00,59.0,48.5,30.06,North,5,3.0,6.0,68,0.00,,CLR,0.00,468.00,VWS V14.01,2013-09-14 14:29:00,
2013-09-14 10:34:00,59.2,47.9,30.06,NNW,344,4.0,8.0,66,0.00,,CLR,0.00,513.00,VWS V14.01,2013-09-14 14:34:00,
2013-09-14 10:39:00,59.8,48.4,30.07,NNW,338,3.0,3.0,66,0.00,,CLR,0.00,633.00,VWS V14.01,2013-09-14 14:39:00,
2013-09-14 10:44:00,60.5,49.1,30.07,NW,306,1.0,1.0,66,0.00,,CLR,0.00,552.00,VWS V14.01,2013-09-14 14:44:00,
2013-09-14 10:49:00,60.5,47.9,30.07,NNW,338,8.0,8.0,63,0.00,,CLR,0.00,251.00,VWS V14.01,2013-09-14 14:49:00,
2013-09-14 10:54:00,59.9,47.3,30.07,WNW,298,2.0,3.0,63,0.00,,CLR,0.00,209.00,VWS V14.01,2013-09-14 14:54:00,
2013-09-14 10:59:00,59.4,47.2,30.07,NNE,14,2.0,2.0,64,0.00,,CLR,0.00,146.00,VWS V14.01,2013-09-14 14:59:00,
2013-09-14 11:04:00,59.4,47.7,30.07,NW,308,0.0,2.0,65,0.00,,CLR,0.00,598.00,VWS V14.01,2013-09-14 15:04:00,
2013-09-14 11:09:00,60.6,47.1,30.07,NW,317,3.0,5.0,61,0.00,,CLR,0.00,612.00,VWS V14.01,2013-09-14 15:09:00,
2013-09-14 11:14:00,61.3,46.9,30.07,NNE,21,2.0,3.0,59,0.00,,CLR,0.00,207.00,VWS V14.01,2013-09-14 15:14:00,
2013-09-14 11:19:00,61.3,47.3,30.07,ENE,78,0.0,1.0,60,0.00,,CLR,0.00,740.00,VWS V14.01,2013-09-14 15:19:00,
2013-09-14 11:24:00,61.3,46.4,30.07,NNW,344,2.0,7.0,58,0.00,,CLR,0.00,244.00,VWS V14.01,2013-09-14 15:24:00,
2013-09-14 11:30:00,60.8,46.4,30.07,NW,304,1.0,8.0,59,0.00,,CLR,0.00,413.00,VWS V14.01,2013-09-14 15:30:00,
2013-09-14 11:35:00,61.5,47.5,30.06,NW,325,0.0,7.0,60,0.00,,CLR,0.00,682.00,VWS V14.01,2013-09-14 15:35:00,
2013-09-14 11:40:00,62.4,47.9,30.07,NNW,331,7.0,12.0,59,0.00,,CLR,0.00,777.00,VWS V14.01,2013-09-14 15:40:00,
2013-09-14 11:45:00,62.7,46.3,30.06,NNW,339,4.0,6.0,55,0.00,,CLR,0.00,823.00,VWS V14.01,2013-09-14 15:45:00,
2013-09-14 11:50:00,62.2,46.3,30.06,WNW,300,0.0,7.0,56,0.00,,CLR,0.00,295.00,VWS V14.01,2013-09-14 15:50:00,
2013-09-14 11:55:00,61.8,47.3,30.06,NW,323,3.0,9.0,59,0.00,,CLR,0.00,288.00,VWS V14.01,2013-09-14 15:55:00,
2013-09-14 12:00:00,61.6,46.7,30.06,WNW,290,4.0,6.0,58,0.00,,CLR,0.00,816.00,VWS V14.01,2013-09-14 16:00:00,
2013-09-14 12:05:00,62.4,47.5,30.07,NNW,347,11.0,13.0,58,0.00,,CLR,0.00,814.00,VWS V14.01,2013-09-14 16:05:00,
2013-09-14 12:10:00,62.3,46.0,30.07,NW,305,5.0,9.0,55,0.00,,CLR,0.00,267.00,VWS V14.01,2013-09-14 16:10:00,
2013-09-14 12:15:00,62.0,46.6,30.07,NW,316,3.0,6.0,57,0.00,,CLR,0.00,471.00,VWS V14.01,2013-09-14 16:15:00,
2013-09-14 12:20:00,62.6,48.5,30.07,NNW,333,9.0,9.0,60,0.00,,CLR,0.00,744.00,VWS V14.01,2013-09-14 16:20:00,
2013-09-14 12:25:00,62.5,47.1,30.07,NNW,336,7.0,8.0,57,0.00,,CLR,0.00,341.00,VWS V14.01,2013-09-14 16:25:00,
2013-09-14 12:30:00,62.1,47.6,30.07,South,190,2.0,5.0,59,0.00,,CLR,0.00,346.00,VWS V14.01,2013-09-14 16:30:00,
2013-09-14 12:36:00,63.1,49.0,30.07,NNW,348,9.0,9.0,60,0.00,,CLR,0.00,905.00,VWS V14.01,2013-09-14 16:36:00,
2013-09-14 12:41:00,63.5,47.5,30.07,NNW,342,12.0,12.0,56,0.00,,CLR,0.00,645.00,VWS V14.01,2013-09-14 16:41:00,
2013-09-14 12:46:00,62.9,47.9,30.07,NNW,334,3.0,6.0,58,0.00,,CLR,0.00,290.00,VWS V14.01,2013-09-14 16:46:00,
2013-09-14 12:51:00,62.9,47.5,30.07,WNW,287,5.0,6.0,57,0.00,,CLR,0.00,751.00,VWS V14.01,2013-09-14 16:51:00,
2013-09-14 12:56:00,63.7,48.2,30.07,NW,313,5.0,10.0,57,0.00,,CLR,0.00,893.00,VWS V14.01,2013-09-14 16:56:00,
2013-09-14 13:01:00,63.8,47.8,30.07,NNW,329,0.0,8.0,56,0.00,,CLR,0.00,322.00,VWS V14.01,2013-09-14 17:01:00,
2013-09-14 13:06:00,63.6,49.0,30.07,North,355,6.0,7.0,59,0.00,,CLR,0.00,559.00,VWS V14.01,2013-09-14 17:06:00,
2013-09-14 13:11:00,63.9,47.9,30.07,NW,321,10.0,10.0,56,0.00,,CLR,0.00,330.00,VWS V14.01,2013-09-14 17:11:00,
2013-09-14 13:16:00,63.1,46.7,30.07,NW,315,3.0,11.0,55,0.00,,CLR,0.00,304.00,VWS V14.01,2013-09-14 17:16:00,
2013-09-14 13:21:00,62.4,47.0,30.07,WNW,297,0.0,10.0,57,0.00,,CLR,0.00,253.00,VWS V14.01,2013-09-14 17:21:00,
2013-09-14 13:26:00,62.6,48.1,30.07,NW,309,2.0,9.0,59,0.00,,CLR,0.00,860.00,VWS V14.01,2013-09-14 17:26:00,
2013-09-14 13:31:00,63.6,47.6,30.07,NW,325,4.0,9.0,56,0.00,,CLR,0.00,889.00,VWS V14.01,2013-09-14 17:31:00,
2013-09-14 13:36:00,64.0,47.5,30.07,NNW,338,7.0,12.0,55,0.00,,CLR,0.00,900.00,VWS V14.01,2013-09-14 17:36:00,
2013-09-14 13:41:00,63.8,47.3,30.07,NW,314,5.0,13.0,55,0.00,,CLR,0.00,907.00,VWS V14.01,2013-09-14 17:41:00,
2013-09-14 13:46:00,63.9,47.4,30.07,NNE,15,6.0,12.0,55,0.00,,CLR,0.00,893.00,VWS V14.01,2013-09-14 17:46:00,
2013-09-14 13:52:00,64.1,47.6,30.07,NW,304,4.0,8.0,55,0.00,,CLR,0.00,773.00,VWS V14.01,2013-09-14 17:52:00,
2013-09-14 13:57:00,64.3,47.3,30.07,NW,325,4.0,8.0,54,0.00,,CLR,0.00,821.00,VWS V14.01,2013-09-14 17:57:00,
2013-09-14 14:02:00,64.3,47.8,30.06,North,5,6.0,9.0,55,0.00,,CLR,0.00,837.00,VWS V14.01,2013-09-14 18:02:00,
2013-09-14 14:07:00,64.1,47.1,30.06,NW,321,4.0,12.0,54,0.00,,CLR,0.00,272.00,VWS V14.01,2013-09-14 18:07:00,
2013-09-14 14:12:00,63.7,48.2,30.06,NNW,336,3.0,9.0,57,0.00,,CLR,0.00,773.00,VWS V14.01,2013-09-14 18:12:00,
2013-09-14 14:17:00,64.1,47.6,30.06,NW,310,4.0,8.0,55,0.00,,CLR,0.00,754.00,VWS V14.01,2013-09-14 18:17:00,
2013-09-14 14:23:00,63.8,46.8,30.06,NW,315,1.0,7.0,54,0.00,,CLR,0.00,773.00,VWS V14.01,2013-09-14 18:23:00,
2013-09-14 14:28:00,63.7,46.8,30.06,NNW,344,7.0,11.0,54,0.00,,CLR,0.00,751.00,VWS V14.01,2013-09-14 18:28:00,
2013-09-14 14:33:00,63.8,47.8,30.06,NNW,336,2.0,8.0,56,0.00,,CLR,0.00,654.00,VWS V14.01,2013-09-14 18:33:00,
2013-09-14 14:38:00,63.9,47.9,30.05,NW,313,5.0,9.0,56,0.00,,CLR,0.00,717.00,VWS V14.01,2013-09-14 18:38:00,
2013-09-14 14:43:00,64.4,47.9,30.05,NW,304,5.0,11.0,55,0.00,,CLR,0.00,712.00,VWS V14.01,2013-09-14 18:43:00,
2013-09-14 14:48:00,64.5,48.0,30.05,West,267,3.0,10.0,55,0.00,,CLR,0.00,703.00,VWS V14.01,2013-09-14 18:48:00,
2013-09-14 14:53:00,64.6,46.6,30.05,NNE,24,5.0,11.0,52,0.00,,CLR,0.00,698.00,VWS V14.01,2013-09-14 18:53:00,
2013-09-14 14:59:00,64.3,47.3,30.05,North,350,6.0,8.0,54,0.00,,CLR,0.00,691.00,VWS V14.01,2013-09-14 18:59:00,
2013-09-14 15:04:00,64.4,47.9,30.05,West,264,2.0,6.0,55,0.00,,CLR,0.00,680.00,VWS V14.01,2013-09-14 19:04:00,
2013-09-14 15:09:00,64.5,47.5,30.05,NW,310,9.0,10.0,54,0.00,,CLR,0.00,671.00,VWS V14.01,2013-09-14 19:09:00,
2013-09-14 15:14:00,64.5,46.5,30.05,NNW,336,4.0,10.0,52,0.00,,CLR,0.00,664.00,VWS V14.01,2013-09-14 19:14:00,
2013-09-14 15:19:00,64.4,45.9,30.05,NW,310,3.0,3.0,51,0.00,,CLR,0.00,652.00,VWS V14.01,2013-09-14 19:19:00,
2013-09-14 15:24:00,64.5,47.0,30.05,NW,314,0.0,0.0,53,0.00,,CLR,0.00,643.00,VWS V14.01,2013-09-14 19:24:00,
2013-09-14 15:29:00,64.9,47.4,30.05,North,360,4.0,4.0,53,0.00,,CLR,0.00,633.00,VWS V14.01,2013-09-14 19:29:00,
2013-09-14 15:34:00,65.1,47.1,30.05,NW,318,0.0,3.0,52,0.00,,CLR,0.00,624.00,VWS V14.01,2013-09-14 19:34:00,
2013-09-14 15:39:00,65.1,47.6,30.05,NNE,15,3.0,7.0,53,0.00,,CLR,0.00,612.00,VWS V14.01,2013-09-14 19:39:00,
2013-09-14 15:44:00,65.2,47.2,30.05,NW,318,3.0,9.0,52,0.00,,CLR,0.00,603.00,VWS V14.01,2013-09-14 19:44:00,
2013-09-14 15:49:00,65.2,47.2,30.05,NNW,333,4.0,4.0,52,0.00,,CLR,0.00,592.00,VWS V14.01,2013-09-14 19:49:00,
2013-09-14 15:54:00,65.4,47.3,30.04,North,360,4.0,7.0,52,0.00,,CLR,0.00,578.00,VWS V14.01,2013-09-14 19:54:00,
2013-09-14 15:59:00,65.4,47.8,30.05,North,5,0.0,1.0,53,0.00,,CLR,0.00,568.00,VWS V14.01,2013-09-14 19:59:00,
2013-09-14 16:04:00,65.8,47.2,30.04,WNW,296,2.0,2.0,51,0.00,,CLR,0.00,557.00,VWS V14.01,2013-09-14 20:04:00,
2013-09-14 16:09:00,66.1,47.5,30.04,NNW,348,4.0,6.0,51,0.00,,CLR,0.00,545.00,VWS V14.01,2013-09-14 20:09:00,
2013-09-14 16:15:00,66.2,48.1,30.04,NNW,340,3.0,8.0,52,0.00,,CLR,0.00,529.00,VWS V14.01,2013-09-14 20:15:00,
2013-09-14 16:20:00,66.2,47.6,30.05,NNW,328,0.0,6.0,51,0.00,,CLR,0.00,519.00,VWS V14.01,2013-09-14 20:20:00,
2013-09-14 16:25:00,66.3,48.2,30.04,NW,321,5.0,7.0,52,0.00,,CLR,0.00,506.00,VWS V14.01,2013-09-14 20:25:00,
2013-09-14 16:30:00,66.4,47.7,30.04,WNW,291,6.0,10.0,51,0.00,,CLR,0.00,490.00,VWS V14.01,2013-09-14 20:30:00,
2013-09-14 16:35:00,66.3,47.7,30.04,NNW,346,4.0,5.0,51,0.00,,CLR,0.00,480.00,VWS V14.01,2013-09-14 20:35:00,
2013-09-14 16:40:00,66.2,47.6,30.04,NNW,327,6.0,8.0,51,0.00,,CLR,0.00,466.00,VWS V14.01,2013-09-14 20:40:00,
2013-09-14 16:46:00,66.2,47.6,30.05,NW,319,1.0,6.0,51,0.00,,CLR,0.00,450.00,VWS V14.01,2013-09-14 20:46:00,
2013-09-14 16:51:00,66.3,48.2,30.05,NNW,339,0.0,5.0,52,0.00,,CLR,0.00,438.00,VWS V14.01,2013-09-14 20:51:00,
2013-09-14 16:56:00,66.5,47.8,30.05,NNW,341,6.0,7.0,51,0.00,,CLR,0.00,420.00,VWS V14.01,2013-09-14 20:56:00,
2013-09-14 17:01:00,66.4,47.2,30.05,North,360,0.0,5.0,50,0.00,,CLR,0.00,404.00,VWS V14.01,2013-09-14 21:01:00,
2013-09-14 17:06:00,66.4,47.7,30.05,NNW,338,5.0,5.0,51,0.00,,CLR,0.00,392.00,VWS V14.01,2013-09-14 21:06:00,
2013-09-14 17:11:00,66.5,47.8,30.05,North,351,2.0,6.0,51,0.00,,CLR,0.00,376.00,VWS V14.01,2013-09-14 21:11:00,
2013-09-14 17:16:00,66.3,47.1,30.05,NW,312,10.0,11.0,50,0.00,,CLR,0.00,362.00,VWS V14.01,2013-09-14 21:16:00,
2013-09-14 17:21:00,66.0,47.4,30.05,NNW,338,4.0,7.0,51,0.00,,CLR,0.00,346.00,VWS V14.01,2013-09-14 21:21:00,
2013-09-14 17:27:00,65.9,47.8,30.05,North,351,4.0,4.0,52,0.00,,CLR,0.00,329.00,VWS V14.01,2013-09-14 21:27:00,
2013-09-14 17:32:00,65.9,47.8,30.05,NW,308,2.0,5.0,52,0.00,,CLR,0.00,316.00,VWS V14.01,2013-09-14 21:32:00,
2013-09-14 17:37:00,65.9,47.3,30.06,North,350,5.0,6.0,51,0.00,,CLR,0.00,306.00,VWS V14.01,2013-09-14 21:37:00,
2013-09-14 17:42:00,65.6,47.0,30.06,NNW,330,3.0,7.0,51,0.00,,CLR,0.00,39.00,VWS V14.01,2013-09-14 21:42:00,
2013-09-14 17:47:00,65.3,47.2,30.06,NNW,333,0.0,5.0,52,0.00,,CLR,0.00,40.00,VWS V14.01,2013-09-14 21:47:00,
2013-09-14 17:52:00,65.1,47.1,30.06,NW,315,3.0,5.0,52,0.00,,CLR,0.00,35.00,VWS V14.01,2013-09-14 21:52:00,
2013-09-14 17:57:00,64.9,47.4,30.06,NNW,339,0.0,8.0,53,0.00,,CLR,0.00,33.00,VWS V14.01,2013-09-14 21:57:00,
2013-09-14 18:02:00,64.8,47.8,30.06,NW,311,0.0,5.0,54,0.00,,CLR,0.00,35.00,VWS V14.01,2013-09-14 22:02:00,
2013-09-14 18:07:00,64.7,47.7,30.06,NNW,327,0.0,6.0,54,0.00,,CLR,0.00,30.00,VWS V14.01,2013-09-14 22:07:00,
2013-09-14 18:12:00,64.6,47.6,30.06,NNW,332,0.0,6.0,54,0.00,,CLR,0.00,30.00,VWS V14.01,2013-09-14 22:12:00,
2013-09-14 18:17:00,64.5,47.5,30.06,NW,311,0.0,7.0,54,0.00,,CLR,0.00,53.00,VWS V14.01,2013-09-14 22:17:00,
2013-09-14 18:23:00,64.4,47.9,30.06,NNW,338,5.0,5.0,55,0.00,,CLR,0.00,116.00,VWS V14.01,2013-09-14 22:23:00,
2013-09-14 18:28:00,64.4,47.9,30.06,NNW,334,0.0,3.0,55,0.00,,CLR,0.00,91.00,VWS V14.01,2013-09-14 22:28:00,
2013-09-14 18:33:00,64.4,48.4,30.06,NNW,333,0.0,1.0,56,0.00,,CLR,0.00,65.00,VWS V14.01,2013-09-14 22:33:00,
2013-09-14 18:38:00,64.3,47.8,30.06,NNW,333,0.0,1.0,55,0.00,,CLR,0.00,23.00,VWS V14.01,2013-09-14 22:38:00,
2013-09-14 18:43:00,64.2,48.2,30.06,NNW,333,0.0,1.0,56,0.00,,CLR,0.00,21.00,VWS V14.01,2013-09-14 22:43:00,
2013-09-14 18:49:00,64.0,48.5,30.06,NNW,329,0.0,2.0,57,0.00,,CLR,0.00,19.00,VWS V14.01,2013-09-14 22:49:00,
2013-09-14 18:51:00,63.8,48.3,30.07,NNW,329,0.0,2.0,57,0.00,,CLR,0.00,18.00,VWS V14.01,2013-09-14 22:51:00,
2013-09-14 18:56:00,63.6,48.6,30.07,NNW,329,0.0,0.0,58,0.00,,CLR,0.00,16.00,VWS V14.01,2013-09-14 22:56:00,
2013-09-14 19:01:00,63.5,48.5,30.07,NNW,329,0.0,0.0,58,0.00,,CLR,0.00,14.00,VWS V14.01,2013-09-14 23:01:00,
2013-09-14 19:07:00,63.3,48.3,30.07,NNW,329,0.0,0.0,58,0.00,,CLR,0.00,12.00,VWS V14.01,2013-09-14 23:07:00,
2013-09-14 19:12:00,63.0,48.5,30.07,NNW,329,0.0,0.0,59,0.00,,CLR,0.00,9.00,VWS V14.01,2013-09-14 23:12:00,
2013-09-14 19:17:00,62.7,48.2,30.07,NNW,329,0.0,0.0,59,0.00,,CLR,0.00,7.00,VWS V14.01,2013-09-14 23:17:00,
2013-09-14 19:22:00,62.2,48.6,30.07,NNW,329,0.0,0.0,61,0.00,,CLR,0.00,0.00,VWS V14.01,2013-09-14 23:22:00,
2013-09-14 19:27:00,61.6,48.5,30.07,NNW,329,0.0,0.0,62,0.00,,CLR,0.00,0.00,VWS V14.01,2013-09-14 23:27:00,
2013-09-14 19:32:00,61.1,48.8,30.08,NNW,329,0.0,0.0,64,0.00,,CLR,0.00,0.00,VWS V14.01,2013-09-14 23:32:00,
2013-09-14 19:38:00,60.7,48.5,30.08,NNW,329,0.0,0.0,64,0.00,,CLR,0.00,0.00,VWS V14.01,2013-09-14 23:38:00,
2013-09-14 19:43:00,60.2,48.4,30.08,NNW,329,0.0,0.0,65,0.00,,CLR,0.00,0.00,VWS V14.01,2013-09-14 23:43:00,
2013-09-14 19:48:00,59.5,48.2,30.08,NNW,329,0.0,0.0,66,0.00,,CLR,0.00,0.00,VWS V14.01,2013-09-14 23:48:00,
2013-09-14 19:53:00,59.0,48.1,30.08,NNW,329,0.0,0.0,67,0.00,,CLR,0.00,0.00,VWS V14.01,2013-09-14 23:53:00,
2013-09-14 19:58:00,58.6,48.1,30.09,NNW,329,0.0,0.0,68,0.00,,CLR,0.00,0.00,VWS V14.01,2013-09-14 23:58:00,
2013-09-14 20:03:00,58.0,48.3,30.09,NNW,329,0.0,0.0,70,0.00,,CLR,0.00,0.00,VWS V14.01,2013-09-15 00:03:00,
2013-09-14 20:08:00,57.6,48.3,30.09,NNW,329,0.0,0.0,71,0.00,,CLR,0.00,0.00,VWS V14.01,2013-09-15 00:08:00,
2013-09-14 20:13:00,57.1,47.8,30.09,NNW,329,0.0,0.0,71,0.00,,CLR,0.00,0.00,VWS V14.01,2013-09-15 00:13:00,
2013-09-14 20:18:00,56.6,47.3,30.10,NNW,329,0.0,0.0,71,0.00,,CLR,0.00,0.00,VWS V14.01,2013-09-15 00:18:00,
2013-09-14 20:24:00,56.3,47.4,30.09,NNW,329,0.0,0.0,72,0.00,,CLR,0.00,0.00,VWS V14.01,2013-09-15 00:24:00,
2013-09-14 20:29:00,55.9,47.0,30.09,NNW,329,0.0,0.0,72,0.00,,CLR,0.00,0.00,VWS V14.01,2013-09-15 00:29:00,
2013-09-14 20:34:00,55.5,47.0,30.10,NNW,329,0.0,0.0,73,0.00,,CLR,0.00,0.00,VWS V14.01,2013-09-15 00:34:00,
2013-09-14 20:39:00,55.0,46.5,30.10,NNW,329,0.0,0.0,73,0.00,,CLR,0.00,0.00,VWS V14.01,2013-09-15 00:39:00,
2013-09-14 20:44:00,54.6,46.5,30.10,NNW,329,0.0,0.0,74,0.00,,CLR,0.00,0.00,VWS V14.01,2013-09-15 00:44:00,
2013-09-14 20:49:00,54.3,46.6,30.10,NNW,329,0.0,0.0,75,0.00,,CLR,0.00,0.00,VWS V14.01,2013-09-15 00:49:00,
2013-09-14 20:54:00,54.0,47.0,30.10,NNW,329,0.0,0.0,77,0.00,,CLR,0.00,0.00,VWS V14.01,2013-09-15 00:54:00,
2013-09-14 20:59:00,53.6,46.2,30.10,NNW,329,0.0,0.0,76,0.00,,CLR,0.00,0.00,VWS V14.01,2013-09-15 00:59:00,
2013-09-14 21:05:00,53.3,46.3,30.11,NNW,329,0.0,0.0,77,0.00,,CLR,0.00,0.00,VWS V14.01,2013-09-15 01:05:00,
2013-09-14 21:10:00,53.0,46.3,30.11,NNW,329,0.0,0.0,78,0.00,,CLR,0.00,0.00,VWS V14.01,2013-09-15 01:10:00,
2013-09-14 21:15:00,52.8,46.5,30.11,NNW,329,0.0,0.0,79,0.00,,CLR,0.00,0.00,VWS V14.01,2013-09-15 01:15:00,
2013-09-14 21:20:00,52.5,45.8,30.11,NNW,329,0.0,0.0,78,0.00,,CLR,0.00,0.00,VWS V14.01,2013-09-15 01:20:00,
2013-09-14 21:25:00,52.2,45.9,30.11,NNW,329,0.0,0.0,79,0.00,,CLR,0.00,0.00,VWS V14.01,2013-09-15 01:25:00,
2013-09-14 21:30:00,52.0,46.0,30.11,NNW,329,0.0,0.0,80,0.00,,CLR,0.00,0.00,VWS V14.01,2013-09-15 01:30:00,
2013-09-14 21:35:00,51.8,46.5,30.11,NNW,329,0.0,0.0,82,0.00,,CLR,0.00,0.00,VWS V14.01,2013-09-15 01:35:00,
2013-09-14 21:40:00,51.5,46.2,30.11,NNW,329,0.0,0.0,82,0.00,,CLR,0.00,0.00,VWS V14.01,2013-09-15 01:40:00,
2013-09-14 21:45:00,51.3,46.0,30.11,NNW,329,0.0,0.0,82,0.00,,CLR,0.00,0.00,VWS V14.01,2013-09-15 01:45:00,
2013-09-14 21:51:00,51.1,46.1,30.11,NNW,329,0.0,0.0,83,0.00,,CLR,0.00,0.00,VWS V14.01,2013-09-15 01:51:00,
2013-09-14 21:56:00,50.9,45.9,30.11,NNW,329,0.0,0.0,83,0.00,,CLR,0.00,0.00,VWS V14.01,2013-09-15 01:56:00,
2013-09-14 22:01:00,50.6,45.6,30.12,NNW,329,0.0,0.0,83,0.00,,CLR,0.00,0.00,VWS V14.01,2013-09-15 02:01:00,
2013-09-14 22:06:00,50.4,45.8,30.12,NNW,329,0.0,0.0,84,0.00,,CLR,0.00,0.00,VWS V14.01,2013-09-15 02:06:00,
2013-09-14 22:11:00,50.2,45.6,30.11,NNW,329,0.0,0.0,84,0.00,,CLR,0.00,0.00,VWS V14.01,2013-09-15 02:11:00,
2013-09-14 22:16:00,50.0,45.7,30.12,NNW,329,0.0,0.0,85,0.00,,CLR,0.00,0.00,VWS V14.01,2013-09-15 02:16:00,
2013-09-14 22:21:00,49.7,45.4,30.12,NNW,329,0.0,0.0,85,0.00,,CLR,0.00,0.00,VWS V14.01,2013-09-15 02:21:00,
2013-09-14 22:27:00,49.6,45.3,30.12,NNW,329,0.0,0.0,85,0.00,,CLR,0.00,0.00,VWS V14.01,2013-09-15 02:27:00,
2013-09-14 22:32:00,49.4,45.1,30.12,NNW,329,0.0,0.0,85,0.00,,CLR,0.00,0.00,VWS V14.01,2013-09-15 02:32:00,
2013-09-14 22:37:00,49.2,45.2,30.12,NNW,329,0.0,0.0,86,0.00,,CLR,0.00,0.00,VWS V14.01,2013-09-15 02:37:00,
2013-09-14 22:42:00,49.0,45.0,30.12,NNW,329,0.0,0.0,86,0.00,,CLR,0.00,0.00,VWS V14.01,2013-09-15 02:42:00,
2013-09-14 22:47:00,48.8,44.8,30.12,NNW,329,0.0,0.0,86,0.00,,CLR,0.00,0.00,VWS V14.01,2013-09-15 02:47:00,
2013-09-14 22:52:00,48.7,45.0,30.12,NNW,329,0.0,0.0,87,0.00,,CLR,0.00,0.00,VWS V14.01,2013-09-15 02:52:00,
2013-09-14 22:57:00,48.6,44.9,30.12,NNW,329,0.0,0.0,87,0.00,,CLR,0.00,0.00,VWS V14.01,2013-09-15 02:57:00,
2013-09-14 23:02:00,48.5,45.1,30.12,NNW,329,0.0,0.0,88,0.00,,CLR,0.00,0.00,VWS V14.01,2013-09-15 03:02:00,
2013-09-14 23:08:00,48.3,44.9,30.12,NNW,329,0.0,0.0,88,0.00,,CLR,0.00,0.00,VWS V14.01,2013-09-15 03:08:00,
2013-09-14 23:13:00,48.2,46.0,30.12,NNW,329,0.0,0.0,92,0.00,,CLR,0.00,0.00,VWS V14.01,2013-09-15 03:13:00,
2013-09-14 23:19:00,48.1,45.0,30.13,NNW,329,0.0,0.0,89,0.00,,CLR,0.00,0.00,VWS V14.01,2013-09-15 03:19:00,
2013-09-14 23:24:00,48.1,45.3,30.13,NNW,329,0.0,0.0,90,0.00,,CLR,0.00,0.00,VWS V14.01,2013-09-15 03:24:00,
2013-09-14 23:29:00,48.2,45.4,30.14,NNW,329,0.0,0.0,90,0.00,,CLR,0.00,0.00,VWS V14.01,2013-09-15 03:29:00,
2013-09-14 23:34:00,48.2,45.7,30.13,NNW,329,0.0,0.0,91,0.00,,CLR,0.00,0.00,VWS V14.01,2013-09-15 03:34:00,
2013-09-14 23:39:00,48.2,45.7,30.14,NNW,329,0.0,0.0,91,0.00,,CLR,0.00,0.00,VWS V14.01,2013-09-15 03:39:00,
2013-09-14 23:44:00,48.1,45.6,30.14,NNW,329,0.0,0.0,91,0.00,,CLR,0.00,0.00,VWS V14.01,2013-09-15 03:44:00,
2013-09-14 23:49:00,48.1,45.6,30.15,NNW,329,0.0,0.0,91,0.00,,CLR,0.00,0.00,VWS V14.01,2013-09-15 03:49:00,
2013-09-14 23:55:00,48.0,45.8,30.15,NNW,329,0.0,0.0,92,0.00,,CLR,0.00,0.00,VWS V14.01,2013-09-15 03:55:00,